Location: Sevilla
(37.3933°N, 5.9839°W)
Time: 05:04:37
(UTC+02:00)

Tiros 1 despin weight - Pass Details

Date: 27 June 2024
Orbit: 576 x 620 km, 48.2° (Epoch: 22 July)

Event Time Altitude Azimuth Distance (km) Brightness Sun altitude
Rises 12:21:45 0° 237° (WSW) 2,858 ? 59.7°
Reaches altitude 10° 12:24:02 10° 238° (WSW) 1,962 ? 60.1°
Maximum altitude 12:28:34 83° 325° (NW) 625 ? 61.0°
Drops below altitude 10° 12:33:09 10° 55° (NE) 1,986 ? 61.8°
Sets 12:35:29 0° 56° (NE) 2,896 ? 62.2°
